User: anonymous   Login
Location: Spradlin Observatory
(33.4706°N, 86.3221°W)
Time: 18:55:53
(UTC-05:00)
Language:

COSMOS 2406 - Orbit

View from above orbital plane
View from above orbital plane
View from above satellite
View from above satellite

Ground track
Ground track

The orbit data is extracted from the following two-line orbital elements,

1 28352U 04021A   15216.17361618 -.00000080  00000-0 -18331-4 0  9995
2 28352 071.0014 110.5694 0013360 048.0791 060.4598 14.11405682574474
Epoch (UTC): 04 August 2015 04:10:00
Eccentricity: 0.0013360
inclination: 71.0014°
perigee height: 845 km
apogee height: 864 km
right ascension of ascending node: 110.5694°
argument of perigee: 48.0791°
revolutions per day: 14.11405682
mean anomaly at epoch: 60.4598°
orbit number at epoch: 57447

The dashed part of the orbit path shows where the satellite is in the earth's shadow,  

DLR